SmartHome-Qt-master.zip
下载
STM32 单片机
查看(4)

所属分类:行业 > 嵌入式
文件大小:3.57 MB
上传日期:2019/5/7 22:06:20
MD5:0fdcbd6193************a2c02ab13d
资源说明:基于zigbee和stm32的智能家居系统,上位机使用Qt编写,实现了基本的监控。主要包括监控室内温度、湿度、烟雾浓度,用led灯模拟控制家中的灯。界面良好。
移动页面: MIP AMP

[资源合计] 文件夹:28,文件:266

# 文件名称 大小 最后修改时间
1 SmartHome-Qt-master\src\qcustomplot\qcustomplot.cpp 830.53 KB 2018/10/14 11:10:25
2 SmartHome-Qt-master\file\SmartHome.db 340 KB 2018/10/14 11:10:25
3 SmartHome-Qt-master\file\sound\ALARM12.WAV 335.92 KB 2018/10/14 11:10:25
4 SmartHome-Qt-master\file\sound\ALARM14.WAV 333.43 KB 2018/10/14 11:10:25
5 SmartHome-Qt-master\file\sound\ALARM13.WAV 320.27 KB 2018/10/14 11:10:25
6 SmartHome-Qt-master\file\sound\ALARM8.WAV 204.54 KB 2018/10/14 11:10:25
7 SmartHome-Qt-master\file\sound\ALARM11.WAV 197.7 KB 2018/10/14 11:10:25
8 SmartHome-Qt-master\screen\controlHome.png 192.81 KB 2018/10/14 11:10:25
9 SmartHome-Qt-master\screen\stm32.png 166.73 KB 2018/10/14 11:10:25
10 SmartHome-Qt-master\src\qcustomplot\qcustomplot.h 145.74 KB 2018/10/14 11:10:25
11 SmartHome-Qt-master\file\sound\ALARM10.WAV 140.04 KB 2018/10/14 11:10:25
12 SmartHome-Qt-master\images\fontawesome-webfont.ttf 138.25 KB 2018/10/14 11:10:25
13 SmartHome-Qt-master\images\Icon\SmartHome.ico 133.4 KB 2018/10/14 11:10:25
14 SmartHome-Qt-master\file\sound\ALARM17.WAV 118.5 KB 2018/10/14 11:10:25
15 SmartHome-Qt-master\images\translator\zh_CN.qm 114.59 KB 2018/10/14 11:10:25
16 SmartHome-Qt-master\file\sound\HOSTDISCONNECT.WAV 97.7 KB 2018/10/14 11:10:25
17 SmartHome-Qt-master\file\sound\ALARM9.WAV 74.37 KB 2018/10/14 11:10:25
18 SmartHome-Qt-master\screen\parlour.png 72.23 KB 2018/10/14 11:10:25
19 SmartHome-Qt-master\file\sound\ALARM16.WAV 65.57 KB 2018/10/14 11:10:25
20 SmartHome-Qt-master\screen\smoke.png 62.88 KB 2018/10/14 11:10:25
21 SmartHome-Qt-master\file\sound\ALARM15.WAV 57.82 KB 2018/10/14 11:10:25
22 SmartHome-Qt-master\screen\bedroom.png 53.55 KB 2018/10/14 11:10:25
23 SmartHome-Qt-master\images\qt_zh_CN.ts 53.07 KB 2018/10/14 11:10:25
24 SmartHome-Qt-master\screen\kitchen.png 51.67 KB 2018/10/14 11:10:25
25 SmartHome-Qt-master\screen\mode.png 49.05 KB 2018/10/14 11:10:25
26 SmartHome-Qt-master\screen\temp.png 48.27 KB 2018/10/14 11:10:25
27 SmartHome-Qt-master\screen\hum.png 47.66 KB 2018/10/14 11:10:25
28 SmartHome-Qt-master\images\midwidget\kitchenHover.png 45.16 KB 2018/10/14 11:10:25
29 SmartHome-Qt-master\images\midwidget\kitchen.png 45 KB 2018/10/14 11:10:25
30 SmartHome-Qt-master\images\midwidget\kitchenPressed.png 44.98 KB 2018/10/14 11:10:25
31 SmartHome-Qt-master\images\midwidget\BedroomHover.png 42.68 KB 2018/10/14 11:10:25
32 SmartHome-Qt-master\images\midwidget\Bedroom.png 42.54 KB 2018/10/14 11:10:25
33 SmartHome-Qt-master\images\midwidget\BedroomPressed.png 42.5 KB 2018/10/14 11:10:25
34 SmartHome-Qt-master\screen\home.png 41.94 KB 2018/10/14 11:10:25
35 SmartHome-Qt-master\file\sound\ALARM6.WAV 41.47 KB 2018/10/14 11:10:25
36 SmartHome-Qt-master\images\midwidget\Safety_pressed.png 40.86 KB 2018/10/14 11:10:25
37 SmartHome-Qt-master\images\midwidget\Safety.png 40.84 KB 2018/10/14 11:10:25
38 SmartHome-Qt-master\images\midwidget\Safety_hover.png 40.77 KB 2018/10/14 11:10:25
39 SmartHome-Qt-master\images\midwidget\ParlorHover.png 39.95 KB 2018/10/14 11:10:25
40 SmartHome-Qt-master\images\midwidget\Parlor.png 39.84 KB 2018/10/14 11:10:25
41 SmartHome-Qt-master\images\midwidget\ParlorPressed.png 39.82 KB 2018/10/14 11:10:25
42 SmartHome-Qt-master\images\module\light_on1.png 33.65 KB 2018/10/14 11:10:25
43 SmartHome-Qt-master\images\module\light_off1.png 33.17 KB 2018/10/14 11:10:25
44 SmartHome-Qt-master\src\database\POP.db 33 KB 2018/10/14 11:10:25
45 SmartHome-Qt-master\src\Serialport\qextserialport.cpp 30.87 KB 2018/10/14 11:10:25
46 SmartHome-Qt-master\file\sound\ALARM7.WAV 27.89 KB 2018/10/14 11:10:25
47 SmartHome-Qt-master\file\sound\HOSTCONNECT.WAV 27.09 KB 2018/10/14 11:10:25
48 SmartHome-Qt-master\src\ui\statisticwidget.cpp 27.05 KB 2018/10/14 11:10:25
49 SmartHome-Qt-master\src\mainwidget\widget.ui 25.86 KB 2018/10/14 11:10:25
50 SmartHome-Qt-master\src\ui\Parlourwidget.ui 25.74 KB 2018/10/14 11:10:25
51 SmartHome-Qt-master\file\sound\ALARM18.WAV 24.77 KB 2018/10/14 11:10:25
52 SmartHome-Qt-master\src\ui\copy\statisticwidget.cpp 23.14 KB 2018/10/14 11:10:25
53 SmartHome-Qt-master\src\ui\copy\Parlourwidget.ui 19.6 KB 2018/10/14 11:10:25
54 SmartHome-Qt-master\src\protocol\readserialportdata.cpp 17.4 KB 2018/10/14 11:10:25
55 SmartHome-Qt-master\src\mainwidget\widget.cpp 16.72 KB 2018/10/14 11:10:25
56 SmartHome-Qt-master\file\sound\ALARM1.WAV 16.67 KB 2018/10/14 11:10:25
57 SmartHome-Qt-master\file\sound\ALARM2.WAV 14.48 KB 2018/10/14 11:10:25
58 SmartHome-Qt-master\src\Serialport\qextserialport_unix.cpp 14.3 KB 2018/10/14 11:10:25
59 SmartHome-Qt-master\src\ui\kitchenwidget.ui 14.23 KB 2018/10/14 11:10:25
60 SmartHome-Qt-master\src\Serialport\qextserialport_win.cpp 14.11 KB 2018/10/14 11:10:25
61 SmartHome-Qt-master\file\sound\ALARM3.WAV 14.11 KB 2018/10/14 11:10:25
62 SmartHome-Qt-master\src\module\tempturesetting.ui 13.15 KB 2018/10/14 11:10:25
63 SmartHome-Qt-master\src\ui\systemsettingdialog.ui 12.6 KB 2018/10/14 11:10:25
64 SmartHome-Qt-master\src\ui\BedRoomWidget.ui 12.23 KB 2018/10/14 11:10:25
65 SmartHome-Qt-master\src\database\sqlhelp.cpp 12.1 KB 2018/10/14 11:10:25
66 SmartHome-Qt-master\src\ui\curtainwidget.ui 11.97 KB 2018/10/14 11:10:25
67 SmartHome-Qt-master\src\ui\parlourwidget.cpp 11.62 KB 2018/10/14 11:10:25
68 SmartHome-Qt-master\src\ui\copy\statisticwidget.ui 11.54 KB 2018/10/14 11:10:25
69 SmartHome-Qt-master\src\help\frmmessagebox.ui 9.09 KB 2018/10/14 11:10:25
70 SmartHome-Qt-master\src\ui\settingDialog.ui 8.96 KB 2018/10/14 11:10:25
71 SmartHome-Qt-master\images\module\light_on.png 8.38 KB 2018/10/14 11:10:25
72 SmartHome-Qt-master\file\sound\ALARM5.WAV 8.35 KB 2018/10/14 11:10:25
73 SmartHome-Qt-master\images\module\light_off.png 8.14 KB 2018/10/14 11:10:25
74 SmartHome-Qt-master\images\title.png 8.09 KB 2018/10/14 11:10:25
75 SmartHome-Qt-master\src\module\statisticssetting.cpp 7.72 KB 2018/10/14 11:10:25
76 SmartHome-Qt-master\images\module\temp_add.png 7.66 KB 2018/10/14 11:10:25
77 SmartHome-Qt-master\src\database\database.h 7.29 KB 2018/10/14 11:10:25
78 SmartHome-Qt-master\images\login\skin.png 7.28 KB 2018/10/14 11:10:25
79 SmartHome-Qt-master\images\module\temp_sub.png 7.18 KB 2018/10/14 11:10:25
80 SmartHome-Qt-master\src\module\statisticssetting.ui 7.11 KB 2018/10/14 11:10:25
81 SmartHome-Qt-master\src\module\smokesetting.ui 7.01 KB 2018/10/14 11:10:25
82 SmartHome-Qt-master\src\ui\modelchoosewidget.ui 6.98 KB 2018/10/14 11:10:25
83 SmartHome-Qt-master\src\Serialport\qextserialport_p.h 6.96 KB 2018/10/14 11:10:25
84 SmartHome-Qt-master\src\help\myhelper.h 6.94 KB 2018/10/14 11:10:25
85 SmartHome-Qt-master\images\curtain\curtain_close.png 6.92 KB 2018/10/14 11:10:25
86 SmartHome-Qt-master\src\Serialport\qextserialport.h 6.84 KB 2018/10/14 11:10:25
87 SmartHome-Qt-master\src\help\systemtray.cpp 6.45 KB 2018/10/14 11:10:25
88 SmartHome-Qt-master\images\curtain\curtain_stop.png 6.07 KB 2018/10/14 11:10:25
89 SmartHome-Qt-master\src\ui\musicwidget.ui 6.03 KB 2018/10/14 11:10:25
90 SmartHome-Qt-master\src\ui\statisticwidget.ui 5.93 KB 2018/10/14 11:10:25
91 SmartHome-Qt-master\src\module\lightsettings.ui 5.78 KB 2018/10/14 11:10:25
92 SmartHome-Qt-master\images\css\style.css 5.65 KB 2018/10/14 11:10:25
93 SmartHome-Qt-master\images\css\style.css~ 5.6 KB 2018/10/14 11:10:25
94 SmartHome-Qt-master\src\ui\bedroomwidget.cpp 5.47 KB 2018/10/14 11:10:25
95 SmartHome-Qt-master\images\NumberButtons\7Pressed.png 5.39 KB 2018/10/14 11:10:25
96 SmartHome-Qt-master\images\NumberButtons\6Pressed.png 5.38 KB 2018/10/14 11:10:25
97 SmartHome-Qt-master\images\NumberButtons\9Pressed.png 5.37 KB 2018/10/14 11:10:25
98 SmartHome-Qt-master\images\NumberButtons\2Pressed.png 5.37 KB 2018/10/14 11:10:25
99 SmartHome-Qt-master\images\message\question.png 5.35 KB 2018/10/14 11:10:25
100 SmartHome-Qt-master\images\NumberButtons\4Pressed.png 5.34 KB 2018/10/14 11:10:25
101 SmartHome-Qt-master\images\NumberButtons\0Pressed.png 5.33 KB 2018/10/14 11:10:25
102 SmartHome-Qt-master\images\NumberButtons\8Pressed.png 5.33 KB 2018/10/14 11:10:25
103 SmartHome-Qt-master\images\curtain\curtain_open.png 5.3 KB 2018/10/14 11:10:25
104 SmartHome-Qt-master\images\NumberButtons\3Pressed.png 5.28 KB 2018/10/14 11:10:25
105 SmartHome-Qt-master\images\NumberButtons\5Pressed.png 5.27 KB 2018/10/14 11:10:25
106 SmartHome-Qt-master\images\module\light_off.svg 5.15 KB 2018/10/14 11:10:25
107 SmartHome-Qt-master\images\module\light_on.svg 5.13 KB 2018/10/14 11:10:25
108 SmartHome-Qt-master\src\ui\kitchenwidget.cpp 5.06 KB 2018/10/14 11:10:25
109 SmartHome-Qt-master\images\message\info.png 4.94 KB 2018/10/14 11:10:25
110 SmartHome-Qt-master\src\ui\systemsettingdialog.cpp 4.86 KB 2018/10/14 11:10:25
111 SmartHome-Qt-master\images\message\error.png 4.84 KB 2018/10/14 11:10:25
112 SmartHome-Qt-master\images\tool\setting_normal.png 4.67 KB 2018/10/14 11:10:25
113 SmartHome-Qt-master\images\switch\btncheckoff.png 4.19 KB 2018/10/14 11:10:25
114 SmartHome-Qt-master\src\help\myapp.cpp 4.14 KB 2018/10/14 11:10:25
115 SmartHome-Qt-master\images\bottom\statistics.png 4.05 KB 2018/10/14 11:10:25
116 SmartHome-Qt-master\src\mainwidget\widget.h 3.99 KB 2018/10/14 11:10:25
117 SmartHome-Qt-master\src\help\savedatathread.cpp 3.91 KB 2018/10/14 11:10:25
118 SmartHome-Qt-master\images\switch\btncheckon.png 3.91 KB 2018/10/14 11:10:25
119 SmartHome-Qt-master\images\message\cancel_pressed.png 3.81 KB 2018/10/14 11:10:25
120 SmartHome-Qt-master\images\message\cancel.png 3.75 KB 2018/10/14 11:10:25
121 SmartHome-Qt-master\src\protocol\analysisdata.h 3.74 KB 2018/10/14 11:10:25
122 SmartHome-Qt-master\images\message\cancel_hover.png 3.73 KB 2018/10/14 11:10:25
123 SmartHome-Qt-master\images\tool\setting_hover.png 3.67 KB 2018/10/14 11:10:25
124 SmartHome-Qt-master\src\database\sqlhelp.h 3.65 KB 2018/10/14 11:10:25
125 SmartHome-Qt-master\src\login\logindialog.cpp 3.6 KB 2018/10/14 11:10:25
126 SmartHome-Qt-master\images\bottom\night.png 3.48 KB 2018/10/14 11:10:25
127 SmartHome-Qt-master\src\ui\settingDialog.cpp 3.41 KB 2018/10/14 11:10:25
128 SmartHome-Qt-master\images\bottom\video.png 3.36 KB 2018/10/14 11:10:25
129 SmartHome-Qt-master\src\module\lightsettings.cpp 3.35 KB 2018/10/14 11:10:25
130 SmartHome-Qt-master\src\protocol\readserialportdata.h 3.32 KB 2018/10/14 11:10:25
131 SmartHome-Qt-master\images\NumberButtons\8Hover.png 3.25 KB 2018/10/14 11:10:25
132 SmartHome-Qt-master\images\NumberButtons\8Normal.png 3.22 KB 2018/10/14 11:10:25
133 SmartHome-Qt-master\images\NumberButtons\9Normal.png 3.2 KB 2018/10/14 11:10:25
134 SmartHome-Qt-master\images\bottom\control.png 3.19 KB 2018/10/14 11:10:25
135 SmartHome-Qt-master\images\module\light_bulb_48.233009708738px_1185650_easyicon.net.png 3.18 KB 2018/10/14 11:10:25
136 SmartHome-Qt-master\images\NumberButtons\6Normal.png 3.17 KB 2018/10/14 11:10:25
137 SmartHome-Qt-master\images\NumberButtons\6Hover.png 3.16 KB 2018/10/14 11:10:25
138 SmartHome-Qt-master\images\css\black.css 3.14 KB 2018/10/14 11:10:25
139 SmartHome-Qt-master\images\NumberButtons\0Normal.png 3.13 KB 2018/10/14 11:10:25
140 SmartHome-Qt-master\images\NumberButtons\9Hover.png 3.13 KB 2018/10/14 11:10:25
141 SmartHome-Qt-master\src\module\securitysetting.ui 3.13 KB 2018/10/14 11:10:25
142 SmartHome-Qt-master\images\NumberButtons\3Hover.png 3.12 KB 2018/10/14 11:10:25
143 SmartHome-Qt-master\images\NumberButtons\3Normal.png 3.11 KB 2018/10/14 11:10:25
144 SmartHome-Qt-master\images\NumberButtons\0Hover.png 3.1 KB 2018/10/14 11:10:25
145 SmartHome-Qt-master\images\NumberButtons\2Hover.png 3.07 KB 2018/10/14 11:10:25
146 SmartHome-Qt-master\images\NumberButtons\2Normal.png 3.04 KB 2018/10/14 11:10:25
147 SmartHome-Qt-master\images\NumberButtons\5Normal.png 2.98 KB 2018/10/14 11:10:25
148 SmartHome-Qt-master\images\NumberButtons\4Normal.png 2.96 KB 2018/10/14 11:10:25
149 SmartHome-Qt-master\images\NumberButtons\5Hover.png 2.95 KB 2018/10/14 11:10:25
150 SmartHome-Qt-master\file\SmartHome.sql 2.93 KB 2018/10/14 11:10:25
151 SmartHome-Qt-master\images\NumberButtons\4Hover.png 2.93 KB 2018/10/14 11:10:25
152 SmartHome-Qt-master\images\tool\setting_pressed.png 2.91 KB 2018/10/14 11:10:25
153 SmartHome-Qt-master\images\NumberButtons\7Hover.png 2.89 KB 2018/10/14 11:10:25
154 SmartHome-Qt-master\image.qrc 2.89 KB 2018/10/14 11:10:25
155 SmartHome-Qt-master\images\NumberButtons\7Normal.png 2.88 KB 2018/10/14 11:10:25
156 SmartHome-Qt-master\images\NumberButtons\1Pressed.png 2.82 KB 2018/10/14 11:10:25
157 SmartHome-Qt-master\images\NumberButtons\1Hover.png 2.82 KB 2018/10/14 11:10:25
158 SmartHome-Qt-master\images\message\ok_pressed.png 2.77 KB 2018/10/14 11:10:25
159 SmartHome-Qt-master\images\sub-line_vertical.png 2.77 KB 2018/10/14 11:10:25
160 SmartHome-Qt-master\images\add-line_vertical.png 2.77 KB 2018/10/14 11:10:25
161 SmartHome-Qt-master\images\array_down.png 2.77 KB 2018/10/14 11:10:25
162 SmartHome-Qt-master\images\message\ok.png 2.74 KB 2018/10/14 11:10:25
163 SmartHome-Qt-master\images\NumberButtons\1Normal.png 2.62 KB 2018/10/14 11:10:25
164 SmartHome-Qt-master\images\qt_zh_CN.qm 2.59 KB 2018/10/14 11:10:25
165 SmartHome-Qt-master\images\message\ok_hover.png 2.54 KB 2018/10/14 11:10:25
166 SmartHome-Qt-master\src\Serialport\qextserialport_global.h 2.51 KB 2018/10/14 11:10:25
167 SmartHome-Qt-master\images\bottom\add.png 2.46 KB 2018/10/14 11:10:25
168 SmartHome-Qt-master\readme.md 2.38 KB 2018/10/14 11:10:25
169 SmartHome-Qt-master\images\bottom\reset.png 2.35 KB 2018/10/14 11:10:25
170 SmartHome-Qt-master\src\protocol\reveicedata.cpp 2.27 KB 2018/10/14 11:10:25
171 SmartHome-Qt-master\src\module\tempturesetting.cpp 2.27 KB 2018/10/14 11:10:25
172 SmartHome-Qt-master\src\help\frmmessagebox.cpp 2.27 KB 2018/10/14 11:10:25
173 SmartHome-Qt-master\src\ui\copy\statisticwidget.h 2.21 KB 2018/10/14 11:10:25
174 SmartHome-Qt-master\src\help\mainmenu.cpp 2.18 KB 2018/10/14 11:10:25
175 SmartHome-Qt-master\src\ui\parlourwidget.h 2.16 KB 2018/10/14 11:10:25
176 SmartHome-Qt-master\src\ui\statisticwidget.h 2.15 KB 2018/10/14 11:10:25
177 SmartHome-Qt-master\src\help\control.h 2.05 KB 2018/10/14 11:10:25
178 SmartHome-Qt-master\src\mainwidget\main.cpp 2.04 KB 2018/10/14 11:10:25
179 SmartHome-Qt-master\src\ui\lightwidget.ui 1.94 KB 2018/10/14 11:10:25
180 SmartHome-Qt-master\src\protocol\analysisdata.cpp 1.87 KB 2018/10/14 11:10:25
181 SmartHome-Qt-master\src\ui\systemsettingdialog.h 1.87 KB 2018/10/14 11:10:25
182 SmartHome-Qt-master\src\ui\modelchoosewidget.cpp 1.84 KB 2018/10/14 11:10:25
183 SmartHome-Qt-master\images\bottom\music.png 1.84 KB 2018/10/14 11:10:25
184 SmartHome-Qt-master\src\module\smokesetting.cpp 1.83 KB 2018/10/14 11:10:25
185 SmartHome-Qt-master\src\help\systemtray.h 1.82 KB 2018/10/14 11:10:25
186 SmartHome-Qt-master\src\ui\kitchenwidget.h 1.69 KB 2018/10/14 11:10:25
187 SmartHome-Qt-master\src\help\serialthread.cpp 1.63 KB 2018/10/14 11:10:25
188 SmartHome-Qt-master\src\ui\curtainwidget.cpp 1.54 KB 2018/10/14 11:10:25
189 SmartHome-Qt-master\src\module\statisticssetting.h 1.52 KB 2018/10/14 11:10:25
190 SmartHome-Qt-master\src\ui\ui.pri 1.5 KB 2018/10/14 11:10:25
191 SmartHome-Qt-master\file\sound\ALARM4.WAV 1.48 KB 2018/10/14 11:10:25
192 SmartHome-Qt-master\src\help\myapp.h 1.43 KB 2018/10/14 11:10:25
193 SmartHome-Qt-master\src\ui\copy\parlourwidget.cpp 1.4 KB 2018/10/14 11:10:25
194 SmartHome-Qt-master\src\help\skinmenu.cpp 1.4 KB 2018/10/14 11:10:25
195 SmartHome-Qt-master\src\module\lightsettings.h 1.39 KB 2018/10/14 11:10:25
196 SmartHome-Qt-master\src\help\drop_shadow_widget.cpp 1.39 KB 2018/10/14 11:10:25
197 SmartHome-Qt-master\images\tool\home_pressed.png 1.37 KB 2018/10/14 11:10:25
198 SmartHome-Qt-master\images\tool\home_normal.png 1.37 KB 2018/10/14 11:10:25
199 SmartHome-Qt-master\images\tool\home_hover.png 1.35 KB 2018/10/14 11:10:25
200 SmartHome-Qt-master\src\help\push_button.cpp 1.26 KB 2018/10/14 11:10:25

请留下有营养的评论,广告灌水一律拉黑处理,谢谢合作!